Wind_Speed
57 59 58 56 55 52 51 50 49 48 48 48 47 45 43 42 41 39 37 36 34 32 31 30 29 29 28 28 28 28 28 29 29 30 30 31 32 32 33 34 35 35 36 36
58 60 55 54 54 54 53 52 51 50 49 50 49 47 46 45 42 40 39 37 36 34 33 32 31 31 30 30 30 30 30 31 31 32 32 33 33 33 34 36 36 37 37 37
58 56 55 55 55 54 54 52 50 49 49 50 50 50 47 46 44 42 41 39 38 36 35 34 33 33 32 31 31 31 31 32 33 33 34 34 34 35 36 37 37 37 37 37
56 55 56 56 55 54 52 49 48 49 50 50 51 52 48 47 45 44 42 41 39 38 37 36 35 34 33 33 33 33 33 33 34 34 34 34 35 36 37 37 37 37 37 38
56 56 56 56 53 52 49 48 48 48 50 52 51 53 50 48 46 44 42 41 40 39 38 37 36 35 34 34 34 34 34 34 34 35 35 35 36 36 37 37 37 37 38 38
55 55 55 54 51 52 50 49 49 49 51 54 52 53 51 47 45 43 41 40 40 39 38 37 37 36 35 35 35 35 35 35 35 35 36 36 36 37 37 37 37 37 38 37
56 56 56 55 54 54 52 51 51 51 53 54 50 52 51 44 42 41 40 40 39 39 39 38 37 37 36 36 36 36 36 36 36 36 36 37 37 37 37 37 37 37 37 37
55 57 56 56 56 55 54 53 52 52 52 51 50 51 48 43 40 40 39 39 38 38 38 38 37 37 36 36 36 36 36 36 36 36 36 36 36 36 36 36 36 36 36 36
51 53 54 55 54 54 55 55 52 51 52 50 50 48 45 41 39 37 37 37 37 37 37 37 37 37 37 36 36 36 36 36 36 36 36 36 35 35 36 36 36 36 36 36
46 50 52 53 55 55 55 54 53 53 52 51 50 47 43 39 36 36 36 36 36 37 37 37 37 37 37 37 36 36 36 35 35 35 35 35 35 35 35 35 35 35 35 36
47 47 49 53 57 56 56 56 56 54 53 50 48 45 40 36 36 36 36 36 36 36 37 37 37 37 36 36 36 36 35 35 35 34 34 34 34 34 34 35 35 35 35 35
49 49 49 50 51 52 55 56 56 55 52 50 46 43 39 35 34 35 35 35 36 36 36 36 36 35 35 35 35 35 34 34 33 33 33 33 33 33 33 34 34 34 34 35
48 50 50 49 52 53 54 55 54 53 52 51 47 42 37 35 33 32 32 34 35 35 35 34 34 35 34 34 34 33 33 33 32 32 32 32 32 32 32 32 32 33 33 33
48 49 51 51 49 51 53 54 53 53 53 50 46 39 37 35 33 32 33 33 34 34 33 33 34 34 34 33 32 32 32 31 31 31 31 31 31 31 31 31 32 32 33 33
49 49 50 50 47 47 50 51 52 52 50 48 42 39 35 35 34 33 34 34 33 33 33 33 33 33 32 32 31 31 30 30 30 30 30 30 30 30 30 31 31 32 32 33
46 49 50 50 50 48 49 50 50 49 49 46 44 41 37 36 36 36 34 33 33 33 32 32 32 32 31 31 30 30 29 29 29 29 29 29 30 30 30 31 31 31 32 33
44 46 50 51 51 51 50 49 48 47 47 46 44 39 39 38 37 35 34 34 34 34 33 32 32 31 30 30 29 29 29 29 29 29 29 29 29 30 30 31 31 32 33 34
43 43 45 48 50 51 48 46 46 46 45 45 43 41 40 38 36 36 36 36 36 34 32 32 32 31 30 29 29 28 28 28 28 28 28 29 29 30 30 31 32 33 33 34
44 43 43 45 48 49 47 46 45 46 45 44 44 43 42 40 39 38 37 36 35 33 33 33 33 31 30 29 29 28 28 28 28 28 28 29 29 30 30 31 32 33 33 34
44 44 44 43 43 46 44 44 45 46 46 44 45 44 43 42 42 36 35 36 36 36 35 34 32 31 30 29 29 28 28 27 28 28 29 29 29 30 31 31 32 32 33 34
42 43 44 44 42 42 43 44 45 46 43 40 42 43 44 43 39 35 36 37 37 36 35 33 32 31 30 29 29 28 28 28 28 29 29 30 30 31 31 31 32 33 33 34
42 42 42 44 44 41 41 44 44 43 42 40 39 41 43 41 39 39 38 37 36 35 34 33 32 31 30 29 29 28 28 28 29 29 30 30 30 30 30 31 32 33 34 34
40 41 41 43 42 39 39 40 41 41 41 40 39 39 40 41 40 38 37 37 36 34 33 32 31 30 30 29 28 28 28 28 28 29 29 30 30 30 31 31 32 33 33 34
39 41 41 41 43 41 39 38 39 39 38 38 38 38 38 39 39 38 36 36 35 34 32 32 31 30 30 29 28 28 28 28 28 28 28 29 30 30 30 31 32 32 33 34
39 40 40 41 42 42 40 37 37 38 37 36 36 36 37 37 36 36 35 34 34 33 32 31 31 30 29 29 28 28 28 28 28 28 28 29 29 30 31 31 32 32 33 34
38 39 39 39 41 41 40 39 37 37 37 37 36 36 35 35 35 34 33 33 33 32 31 30 30 29 29 28 28 28 27 27 27 28 29 29 30 30 31 31 32 33 34 35
Wind_Direction
227 228 229 229 231 232 233 232 231 230 231 232 233 231 230 231 231 231 232 233 234 235 236 239 241 244 246 250 253 257 261 264 268 271 274 277 279 281 284 286 288 289 290 291
225 228 228 229 229 230 231 231 230 230 231 233 233 232 231 232 232 233 235 236 237 239 240 241 244 247 249 252 256 259 262 264 268 271 274 276 278 280 283 286 287 288 289 291
226 226 226 227 228 228 229 230 231 232 233 234 235 234 233 233 234 234 236 237 239 241 243 245 247 249 251 255 258 260 262 265 268 271 273 275 277 280 282 284 285 287 288 290
225 223 223 225 226 228 229 230 232 233 234 234 235 235 232 234 235 235 237 239 241 243 245 247 249 251 253 256 258 260 263 265 267 270 272 274 277 279 281 282 284 286 287 289
223 222 223 224 225 227 229 229 232 233 235 235 235 237 231 233 235 236 238 240 242 243 245 247 249 252 254 256 258 261 263 265 267 269 271 274 276 278 280 281 283 285 287 289
222 222 223 223 223 226 227 228 230 232 233 235 233 237 233 231 234 236 238 240 241 243 245 247 249 252 255 257 259 262 264 266 268 270 272 274 276 277 279 280 282 284 287 289
221 222 221 221 221 222 223 225 227 230 233 235 233 237 235 230 233 235 238 240 241 243 245 248 250 253 255 257 260 262 264 266 267 269 272 274 276 277 278 280 282 284 286 288
223 223 222 222 221 222 223 225 227 231 235 237 236 237 236 233 232 234 236 239 241 244 245 248 250 252 255 257 259 261 263 265 267 269 272 274 275 276 278 280 282 284 286 288
225 226 224 224 223 223 223 225 227 231 235 237 236 236 235 233 232 233 235 238 240 243 245 248 250 252 254 256 258 260 262 265 267 269 271 273 275 276 277 279 282 285 287 289
224 225 224 224 223 223 224 225 225 228 232 235 236 235 234 232 233 234 235 237 240 243 245 247 250 252 254 256 258 259 262 264 267 269 271 272 274 275 277 280 282 285 287 288
223 224 222 222 222 223 222 223 224 228 232 234 236 236 234 234 234 234 235 237 240 242 245 247 250 252 254 256 257 259 262 264 266 268 270 272 273 275 278 280 283 285 286 288
223 223 223 223 223 223 225 226 226 228 231 234 237 236 233 232 234 234 235 236 238 241 244 246 249 251 253 255 257 259 261 263 265 267 269 271 273 275 278 280 283 284 286 288
222 224 224 223 222 221 223 224 225 227 230 232 232 232 230 232 232 232 233 235 238 240 242 245 248 250 252 255 257 259 261 263 265 266 268 270 273 275 278 280 282 285 287 288
221 223 223 223 223 223 223 223 223 224 226 228 228 227 227 229 230 230 232 234 236 238 241 243 247 250 252 255 257 259 261 262 264 266 268 271 273 276 279 281 283 285 287 288
222 224 223 224 223 223 223 224 224 225 227 229 227 227 226 228 228 230 232 233 235 236 238 241 245 248 252 254 256 258 260 262 264 266 268 271 274 277 280 282 284 286 287 289
223 224 224 224 224 224 223 222 223 224 226 227 227 225 224 226 228 230 232 233 233 234 237 241 244 247 250 252 255 257 260 262 264 266 269 272 275 278 280 283 285 286 288 290
222 222 225 226 225 225 224 221 222 222 223 225 224 221 224 225 227 228 230 231 232 234 237 240 244 246 249 251 254 256 259 261 264 267 270 273 276 279 281 283 285 287 289 291
220 221 224 224 224 226 223 222 222 222 222 223 222 221 223 224 226 227 228 231 232 234 236 240 243 245 248 251 254 256 259 262 264 268 271 275 278 281 283 284 286 288 290 293
222 220 221 222 223 224 221 221 222 222 220 220 222 222 223 225 226 227 229 232 234 234 235 238 242 244 247 250 253 255 258 262 265 269 272 276 279 281 283 285 287 289 291 293
223 223 223 222 223 221 218 221 222 223 221 221 224 224 225 227 229 229 231 233 233 234 236 238 241 243 246 249 251 254 258 262 266 270 273 276 279 281 284 286 288 289 291 294
222 223 225 224 224 219 216 219 220 223 221 222 226 226 227 229 231 228 229 231 233 235 236 237 240 243 245 248 251 255 258 262 266 270 274 277 279 282 284 286 288 290 293 295
223 222 223 224 222 215 215 218 220 221 220 221 223 224 226 227 228 227 228 231 233 233 234 236 239 243 246 249 252 255 259 263 267 270 273 276 279 282 284 286 289 291 293 295
222 222 224 225 220 214 215 216 217 218 219 220 221 222 224 225 227 227 228 230 232 232 233 235 239 242 245 248 252 256 261 264 268 271 274 277 280 282 284 287 290 292 294 296
220 219 221 222 217 215 214 213 214 215 216 219 220 221 223 224 225 226 227 229 230 231 233 235 238 242 245 248 252 258 262 265 268 272 274 277 280 282 285 288 290 293 295 297
218 217 218 219 216 214 212 212 212 213 214 217 217 218 221 223 224 225 227 228 229 231 232 236 239 242 245 249 253 258 262 265 269 272 275 278 280 283 286 288 291 293 295 298
217 218 217 216 216 216 212 213 213 212 213 215 214 214 217 219 221 223 225 226 227 230 233 236 238 241 246 249 254 258 261 265 268 272 275 278 281 284 287 289 291 294 297 299
Height
5660 5667 5676 5687 5696 5704 5709 5715 5722 5729 5733 5737 5742 5748 5754 5759 5763 5769 5774 5778 5783 5787 5790 5793 5796 5798 5800 5802 5803 5804 5805 5805 5805 5806 5805 5805 5804 5803 5802 5800 5799 5797 5795 5793
5648 5656 5671 5678 5683 5690 5697 5703 5711 5718 5722 5727 5732 5738 5744 5750 5756 5762 5766 5771 5775 5779 5783 5786 5789 5791 5793 5795 5796 5797 5798 5798 5799 5799 5798 5798 5797 5796 5795 5793 5791 5789 5788 5785
5637 5652 5660 5665 5672 5679 5686 5695 5703 5709 5713 5716 5722 5727 5735 5742 5747 5753 5758 5763 5767 5772 5775 5778 5781 5783 5785 5787 5789 5790 5791 5791 5791 5791 5791 5790 5790 5789 5787 5785 5784 5782 5780 5778
5627 5639 5646 5653 5662 5670 5678 5688 5694 5698 5702 5706 5711 5716 5727 5732 5738 5745 5750 5755 5759 5764 5767 5770 5773 5775 5778 5780 5781 5782 5783 5784 5784 5783 5783 5783 5782 5781 5780 5778 5776 5774 5772 5770
5617 5628 5635 5643 5655 5663 5672 5679 5683 5687 5691 5695 5701 5705 5717 5723 5730 5737 5743 5747 5751 5755 5759 5762 5765 5767 5769 5771 5773 5774 5775 5776 5776 5776 5776 5775 5775 5773 5772 5770 5769 5767 5765 5763
5608 5618 5625 5636 5646 5653 5660 5666 5671 5675 5678 5683 5693 5696 5705 5716 5723 5729 5734 5738 5742 5746 5750 5753 5756 5759 5761 5763 5765 5766 5767 5768 5768 5768 5768 5767 5766 5765 5764 5762 5760 5759 5757 5755
5597 5605 5614 5624 5632 5640 5647 5655 5660 5663 5666 5674 5685 5686 5697 5710 5716 5721 5726 5730 5733 5737 5741 5745 5747 5750 5753 5755 5756 5758 5759 5759 5759 5759 5759 5759 5758 5757 5756 5754 5753 5751 5749 5747
5588 5595 5605 5613 5622 5631 5639 5646 5652 5657 5662 5669 5675 5679 5692 5702 5708 5712 5717 5721 5725 5729 5733 5736 5739 5742 5744 5746 5748 5749 5750 5751 5751 5751 5751 5751 5750 5749 5747 5746 5744 5743 5741 5739
5579 5589 5599 5606 5615 5623 5629 5635 5644 5650 5653 5659 5664 5673 5684 5693 5699 5704 5709 5713 5716 5720 5724 5727 5730 5733 5735 5737 5739 5740 5741 5742 5743 5743 5742 5742 5741 5740 5739 5738 5736 5734 5733 5731
5570 5578 5588 5596 5603 5610 5619 5628 5633 5638 5643 5649 5656 5665 5677 5686 5692 5697 5701 5704 5708 5712 5715 5718 5721 5724 5726 5728 5730 5731 5732 5733 5734 5734 5734 5733 5733 5732 5731 5730 5728 5726 5725 5723
5560 5568 5577 5584 5590 5600 5609 5615 5621 5629 5635 5643 5650 5662 5672 5678 5683 5688 5692 5696 5699 5703 5706 5709 5712 5715 5717 5719 5721 5722 5724 5724 5725 5725 5725 5725 5724 5724 5723 5722 5720 5719 5717 5715
5551 5559 5566 5575 5585 5593 5600 5607 5614 5621 5628 5636 5644 5657 5663 5670 5675 5679 5684 5688 5691 5695 5698 5701 5704 5706 5708 5710 5712 5714 5715 5716 5716 5717 5717 5716 5716 5716 5715 5714 5712 5711 5709 5707
5542 5550 5557 5564 5573 5579 5586 5595 5604 5613 5620 5626 5635 5649 5656 5662 5667 5671 5676 5679 5683 5686 5690 5693 5695 5697 5700 5702 5704 5705 5706 5707 5708 5708 5708 5708 5708 5708 5707 5706 5705 5703 5701 5700
5533 5540 5547 5554 5562 5571 5578 5587 5595 5601 5608 5618 5629 5641 5648 5653 5659 5664 5668 5671 5674 5678 5682 5684 5687 5689 5691 5694 5695 5697 5698 5699 5700 5700 5700 5701 5700 5700 5699 5698 5697 5695 5694 5692
5523 5531 5538 5547 5554 5562 5571 5579 5586 5593 5603 5613 5625 5632 5640 5646 5651 5655 5659 5663 5667 5671 5674 5676 5679 5681 5684 5686 5687 5689 5690 5691 5692 5692 5693 5693 5693 5692 5691 5690 5689 5688 5686 5684
5516 5523 5531 5538 5546 5552 5560 5569 5577 5587 5597 5606 5615 5623 5632 5636 5641 5646 5650 5655 5659 5663 5666 5669 5671 5674 5676 5678 5679 5681 5682 5683 5684 5685 5685 5685 5685 5685 5684 5683 5681 5680 5678 5676
5509 5516 5523 5531 5538 5542 5550 5562 5572 5581 5589 5598 5606 5617 5622 5627 5632 5638 5642 5646 5650 5654 5658 5661 5663 5666 5668 5670 5672 5674 5675 5676 5677 5677 5678 5678 5677 5677 5676 5675 5673 5672 5670 5668
5503 5509 5515 5523 5529 5534 5550 5558 5565 5574 5582 5590 5598 5606 5611 5618 5623 5628 5632 5637 5641 5645 5649 5652 5655 5658 5660 5662 5664 5666 5667 5668 5669 5670 5670 5670 5669 5669 5668 5667 5665 5664 5662 5659
5495 5501 5508 5514 5520 5530 5542 5550 5558 5565 5574 5583 5589 5596 5602 5608 5612 5618 5624 5628 5633 5637 5641 5644 5647 5650 5652 5655 5657 5659 5660 5661 5662 5662 5662 5662 5662 5661 5660 5659 5657 5655 5653 5651
5487 5493 5501 5507 5513 5523 5538 5545 5550 5557 5565 5575 5580 5586 5592 5597 5603 5612 5616 5620 5624 5628 5632 5635 5639 5642 5645 5648 5650 5652 5653 5654 5654 5655 5655 5654 5654 5653 5652 5651 5649 5647 5645 5643
5480 5486 5492 5499 5506 5516 5529 5535 5541 5550 5562 5567 5572 5577 5582 5588 5598 5605 5607 5611 5615 5620 5624 5628 5631 5635 5638 5640 5642 5644 5645 5646 5647 5647 5647 5647 5646 5645 5644 5643 5641 5639 5637 5634
5473 5479 5486 5492 5501 5515 5522 5527 5535 5543 5552 5557 5562 5567 5573 5581 5588 5593 5597 5602 5607 5612 5617 5620 5624 5627 5630 5633 5635 5636 5637 5638 5639 5639 5639 5639 5638 5637 5636 5635 5633 5631 5628 5626
5465 5474 5481 5488 5500 5508 5513 5520 5527 5534 5541 5547 5553 5559 5565 5572 5578 5584 5590 5595 5600 5605 5609 5613 5616 5619 5622 5625 5627 5628 5630 5630 5631 5631 5631 5631 5630 5629 5628 5626 5624 5622 5620 5617
5458 5465 5472 5480 5490 5498 5505 5512 5519 5526 5533 5539 5545 5551 5558 5564 5570 5576 5582 5587 5592 5597 5601 5605 5609 5612 5614 5617 5619 5621 5622 5622 5623 5623 5623 5623 5622 5621 5620 5618 5616 5614 5611 5608
5450 5457 5464 5472 5482 5490 5498 5505 5512 5519 5525 5531 5538 5545 5551 5557 5563 5568 5574 5579 5585 5590 5594 5598 5601 5604 5607 5609 5611 5613 5614 5615 5615 5615 5615 5615 5614 5613 5611 5610 5608 5605 5603 5600
5444 5451 5458 5466 5475 5481 5490 5497 5504 5510 5518 5524 5531 5538 5544 5550 5556 5561 5567 5572 5577 5582 5587 5590 5594 5597 5599 5601 5603 5605 5606 5607 5607 5607 5607 5607 5606 5605 5603 5601 5599 5596 5594 5591